Greenville Downtown, SC

9:06 AM EDT on March 23, 2017 (GMT -0400)
Greenville Downtown

Weather History for KGMU - December, 2012

Change the Weather History Date:

Thursday, December 13, 2012

  Actual Average Record
Temperature  
Mean Temperature 46 °F -  
Max Temperature 54 °F 51 °F 71 °F (2007)
Min Temperature 39 °F 34 °F 19 °F (2010)
Degree Days  
Heating Degree Days 18    
Moisture  
Dew Point 25 °F    
Average Humidity 45    
Maximum Humidity 58    
Minimum Humidity 26    
Precipitation  
Precipitation 0.00 in - - ()
Sea Level Pressure  
Sea Level Pressure 30.33 in    
Wind  
Wind Speed 12 mph (NE)    
Max Wind Speed 15 mph    
Max Gust Speed 23 mph    
Visibility 10 miles    
Events      
Averages and records for this station are not official NWS values.
T = Trace of Precipitation, MM = Missing Value Source: NWS Daily Summary

Daily Weather History Graph

Daily Weather History Graph

Search for Another Location

Airport or City:

Trip Planner

Search our weather history database for the weather conditions in past years. The results will help you decide how hot, cold, wet, or windy it might be!

Date:

Astronomy

Dec. 13, 2012 Rise Set
Actual Time 7:28 AM EST 5:19 PM EST
Civil Twilight 7:00 AM EST 5:47 PM EST
Nautical Twilight 6:28 AM EST 6:18 PM EST
Astronomical Twilight 5:58 AM EST 6:49 PM EST
Moon 7:36 AM EST (12/13) 5:59 PM EST (12/13)
Length of Visible Light 10h 46m
Length of Day
9h 50m
New Moon, 0% of the Moon is Illuminated
Dec 13
New Moon
Dec 20
First Quarter
Dec 28
Full
Jan 4
Last Quarter
Jan 11
New

Hourly Weather History & Observations

Time (EST) Temp. Windchill Dew Point Humidity Pressure Visibility Wind Dir Wind Speed Gust Speed Precip Events Conditions
12:53 AM 44.1 °F 37.4 °F 30.0 °F 58% 30.28 in 10.0 mi NE 13.8 mph 19.6 mph N/A   Overcast
1:26 AM 44.6 °F 38.4 °F 30.2 °F 57% 30.26 in 10.0 mi NE 12.7 mph - N/A   Overcast
1:53 AM 44.1 °F 37.4 °F 28.9 °F 55% 30.28 in 10.0 mi NE 13.8 mph - N/A   Overcast
2:53 AM 44.1 °F 37.7 °F 28.9 °F 55% 30.29 in 10.0 mi NE 12.7 mph - N/A   Overcast
3:53 AM 44.1 °F 38.1 °F 27.0 °F 51% 30.30 in 10.0 mi NE 11.5 mph - N/A   Overcast
4:14 AM 44.6 °F 39.2 °F 26.6 °F 49% 30.27 in 10.0 mi NNE 10.4 mph 18.4 mph N/A   Overcast
4:53 AM 44.1 °F 38.6 °F 28.0 °F 53% 30.29 in 10.0 mi NNE 10.4 mph 20.7 mph N/A   Overcast
5:53 AM 44.1 °F 38.1 °F 27.0 °F 51% 30.31 in 10.0 mi NNE 11.5 mph 18.4 mph N/A   Overcast
6:53 AM 44.1 °F 37.4 °F 25.0 °F 47% 30.33 in 10.0 mi NNE 13.8 mph 18.4 mph N/A   Overcast
7:30 AM 42.8 °F 35.8 °F 24.8 °F 49% 30.33 in 10.0 mi NE 13.8 mph - N/A   Overcast
7:53 AM 43.0 °F 36.4 °F 24.1 °F 47% 30.35 in 10.0 mi NE 12.7 mph - N/A   Overcast
8:53 AM 44.1 °F 37.1 °F 25.0 °F 47% 30.35 in 10.0 mi NE 15.0 mph 23.0 mph N/A   Overcast
9:53 AM 46.0 °F 39.6 °F 24.1 °F 42% 30.37 in 10.0 mi NE 15.0 mph - N/A   Overcast
10:53 AM 48.0 °F - 23.0 °F 37% 30.39 in 10.0 mi NNE 11.5 mph 19.6 mph N/A   Partly Cloudy
11:53 AM 50.0 °F - 25.0 °F 38% 30.37 in 10.0 mi NNE 9.2 mph - N/A   Clear
12:53 PM 52.0 °F - 26.1 °F 37% 30.34 in 10.0 mi ENE 10.4 mph - N/A   Clear
1:53 PM 53.1 °F - 24.1 °F 32% 30.33 in 10.0 mi North 10.4 mph - N/A   Clear
2:53 PM 53.1 °F - 19.0 °F 26% 30.32 in 10.0 mi Variable 4.6 mph - N/A   Clear
3:53 PM 54.0 °F - 19.9 °F 26% 30.33 in 10.0 mi NNE 6.9 mph - N/A   Clear
4:53 PM 52.0 °F - 19.9 °F 28% 30.33 in 10.0 mi ENE 5.8 mph - N/A   Clear
8:53 PM 39.9 °F 35.1 °F 24.1 °F 53% 30.36 in 10.0 mi North 6.9 mph - N/A   Clear
9:53 PM 41.0 °F 35.2 °F 23.0 °F 49% 30.36 in 10.0 mi NNE 9.2 mph - N/A   Clear
10:53 PM 39.0 °F 34.8 °F 23.0 °F 53% 30.37 in 10.0 mi North 5.8 mph - N/A   Clear
11:53 PM 42.1 °F - 21.0 °F 43% 30.37 in 10.0 mi Calm Calm - N/A   Clear